Hourly Weather Roundup
Issued by NWS Central Illinois

Home | Current Version | Previous Version | Text Only | Print | Product List | Glossary On
Versions: 1 2 3 4 5 6 7 8 9 10 11 12 13 14 15 16 17 18 19 20 21 22 23 24 25 26 27 28 29 30 31 32 33 34 35 36 37 38 39 40 41 42 43 44 45 46 47 48 49 50
884
NZUS43 KILX 241510
HWRILX

Area Weather Roundup
National Weather Service Lincoln IL
1000 AM CDT SUN SEP 24 2017

NOTE:  "FAIR" indicates few or no clouds below 12,000 feet, with
       no sigificant weather and/or obstructions to visibility.


CITY           SKY/WX    TMP DP  RH WIND       PRES   REMARKS
Bloomington    SUNNY     79  66  64 S7        30.12S HX  81
Champaign      SUNNY     82  63  52 VRB3      30.11S HX  83
Danville       SUNNY     82  64  54 CALM      30.09S HX  83
Decatur        SUNNY     79  65  62 SE5       30.10S HX  81
Effingham      SUNNY     83  64  52 E3        30.10F HX  85
Flora          SUNNY     82  66  57 CALM      30.08F HX  85
Galesburg      SUNNY     76  64  66 SE5       30.08S
Jacksonville   SUNNY     81  66  60 S7        30.07F HX  83
Lacon          SUNNY     81  65  58 S6        30.08S HX  83
Lawrenceville  SUNNY     81  68  64 NE3       30.09S HX  84
Litchfield     SUNNY     80  66  61 SE8       30.08F HX  82
$$


CITY           SKY/WX    TMP DP  RH WIND       PRES   REMARKS
Lincoln        SUNNY     81  67  61 S6        30.09S HX  84
Macomb         SUNNY     78  64  61 SE3       30.08S HX  80
Mattoon        SUNNY     81  65  58 SE7       30.09S HX  83
Mt Carmel AP   SUNNY     81  65  59 E5        30.09S HX  83
Olney-Noble AP SUNNY     82  62  50 CALM      30.09S HX  82
Paris AP       SUNNY     83  65  54 E6        30.11S HX  85
Peoria         SUNNY     81  67  62 S8        30.08S HX  83
Pontiac        SUNNY     81  67  62 S8        30.11S HX  83
Rantoul        SUNNY     81  67  60 CALM      30.11S HX  84
Robinson       SUNNY     79  67  66 E3        30.10F HX  81
Springfield    SUNNY     84  67  56 S7        30.08S HX  86
Taylorville    SUNNY     83  65  55 S6        30.09S HX  85
$$

...REGIONAL REPORTS...


CITY           SKY/WX    TMP DP  RH WIND       PRES   REMARKS
Chicago O`Hare SUNNY     84  63  49 SW3       30.09S HX  85
Kankakee       SUNNY     80  65  61 SE5       30.12S HX  82
Moline         SUNNY     79  63  57 S6        30.05S HX  80
Mount Sterling SUNNY     77  66  67 S3        30.06S
Mount Vernon     N/A     80  67  64 CALM      30.08S HX  82
Pittsfield     SUNNY     81  67  62 S5        30.08S HX  83
Quincy         SUNNY     81  65  58 S10       30.05S HX  83
Rockford       SUNNY     80  64  58 S7        30.10S HX  82
$$


CITY           SKY/WX    TMP DP  RH WIND       PRES   REMARKS
Burlington     SUNNY     78  65  63 S7        30.05R HX  80
Cedar Rapids   SUNNY     79  63  57 S8        30.03S HX  80
Des Moines     MOSUNNY   78  65  63 SE6G17    29.97S HX  80
Kirksville     SUNNY     79  67  66 S8        30.04S HX  81
Ottumwa        SUNNY     78  65  63 S7        30.02R HX  80
St Louis       SUNNY     81  68  64 S6        30.07S HX  84
$$


CITY           SKY/WX    TMP DP  RH WIND       PRES   REMARKS
Terre Haute    SUNNY     82  64  54 SE5       30.10S HX  83
Evansville     SUNNY     80  65  59 CALM      30.08S HX  82
Indianapolis   SUNNY     80  62  54 E5        30.12S HX  81
Lafayette      SUNNY     78  67  68 CALM      30.11S HX  80
Madison        SUNNY     78  65  63 S8        30.07S HX  80
Milwaukee      SUNNY     84  67  56 S7        30.09S HX  86
$$






USA.gov is the U.S. government's official web portal to all federal, state and local government web resources and services.